Precipitable_Water
1.25 1.23 1.21 1.21 1.19 1.09 1.07 1.06 1.05 0.98 0.84 0.72 0.78 0.79 0.84 0.86 0.88 0.80 0.78 0.92 0.76 0.58 0.57 0.65 0.74 0.75 0.75 0.78 0.71 0.78 0.76 0.75 0.70 0.58 0.56 0.55 0.53 0.54 0.50 0.57 0.56 0.53 0.50 0.49 0.48 0.44 0.40 0.72 0.72 0.57 0.64 0.77 0.84 0.90
1.24 1.23 1.23 1.19 1.10 1.06 1.07 1.04 1.02 0.94 0.83 0.71 0.75 0.77 0.80 0.85 0.85 0.87 0.67 0.87 0.92 0.73 0.63 0.74 0.77 0.84 0.85 0.82 0.77 0.80 0.79 0.79 0.82 0.70 0.67 0.64 0.55 0.56 0.52 0.43 0.64 0.51 0.57 0.52 0.53 0.51 0.68 0.75 0.72 0.80 0.82 0.79 0.86 0.94
1.23 1.23 1.19 1.12 1.05 1.01 0.99 0.96 0.94 0.90 0.80 0.72 0.73 0.75 0.78 0.81 0.82 0.88 0.77 0.78 0.80 0.76 0.71 0.73 0.69 0.79 0.86 0.83 0.86 0.66 0.73 0.78 0.77 0.85 0.74 0.67 0.57 0.63 0.50 0.50 0.56 0.63 0.72 0.60 0.60 0.67 0.72 0.77 0.84 0.87 0.89 0.89 0.93 0.96
1.23 1.22 1.15 1.06 1.01 0.97 0.95 0.94 0.93 0.87 0.76 0.70 0.71 0.73 0.75 0.78 0.78 0.84 0.75 0.81 0.75 0.74 0.59 0.64 0.83 0.77 0.85 0.80 0.79 0.77 0.69 0.71 0.72 0.74 0.65 0.62 0.59 0.69 0.57 0.61 0.60 0.66 0.70 0.65 0.67 0.76 0.82 0.86 0.93 0.95 0.95 0.97 0.96 0.99
1.22 1.22 1.14 1.05 1.03 1.01 0.98 0.95 0.91 0.84 0.75 0.69 0.70 0.72 0.72 0.77 0.78 0.77 0.80 0.85 0.79 0.66 0.53 0.59 0.77 0.84 0.88 0.83 0.78 0.81 0.74 0.67 0.61 0.54 0.55 0.55 0.63 0.63 0.66 0.66 0.58 0.69 0.63 0.57 0.54 0.76 0.79 0.83 0.94 0.97 0.93 0.93 0.94 0.90
1.17 1.17 1.11 1.05 1.05 1.03 1.01 0.95 0.89 0.82 0.74 0.68 0.69 0.70 0.71 0.77 0.83 0.79 0.67 0.85 0.81 0.76 0.58 0.51 0.77 0.77 0.83 0.85 0.81 0.77 0.76 0.71 0.65 0.58 0.56 0.61 0.69 0.64 0.53 0.50 0.64 0.73 0.77 0.75 0.66 0.81 0.87 0.92 0.98 1.00 0.94 0.94 0.97 0.94
1.02 1.08 1.05 1.03 1.00 0.97 0.96 0.93 0.86 0.83 0.74 0.68 0.68 0.68 0.70 0.79 0.77 0.63 0.57 0.73 0.81 0.77 0.57 0.53 0.56 0.75 0.81 0.79 0.76 0.72 0.75 0.69 0.67 0.61 0.57 0.60 0.62 0.65 0.57 0.47 0.61 0.69 0.73 0.78 0.83 0.84 0.81 0.88 0.84 0.94 0.94 0.97 0.98 0.94
0.94 0.99 0.98 0.98 0.95 0.92 0.93 0.90 0.83 0.83 0.74 0.66 0.65 0.73 0.75 0.81 0.81 0.75 0.80 0.84 0.80 0.65 0.65 0.48 0.51 0.59 0.77 0.60 0.53 0.67 0.59 0.63 0.62 0.61 0.63 0.58 0.63 0.62 0.48 0.62 0.66 0.71 0.76 0.79 0.86 0.92 0.91 0.95 0.97 0.97 1.00 1.00 0.93 0.91
0.87 0.88 0.87 0.95 0.96 0.94 0.92 0.90 0.82 0.78 0.72 0.65 0.62 0.78 0.78 0.80 0.68 0.74 0.86 0.85 0.83 0.68 0.51 0.53 0.43 0.40 0.70 0.60 0.61 0.60 0.62 0.47 0.65 0.55 0.59 0.63 0.57 0.49 0.63 0.68 0.71 0.77 0.77 0.79 0.86 0.92 0.99 0.97 0.98 1.01 0.99 0.97 0.93 0.90
0.80 0.79 0.85 0.90 0.92 0.90 0.90 0.87 0.81 0.75 0.69 0.65 0.58 0.57 0.58 0.76 0.86 0.89 0.87 0.76 0.78 0.75 0.72 0.55 0.63 0.50 0.63 0.60 0.55 0.53 0.59 0.51 0.43 0.54 0.66 0.56 0.56 0.77 0.84 0.87 0.88 0.89 0.92 0.93 0.84 0.82 0.96 0.97 0.96 0.96 0.94 0.95 0.92 0.91
0.79 0.78 0.88 0.90 0.89 0.86 0.85 0.80 0.79 0.72 0.67 0.58 0.49 0.47 0.68 0.81 0.80 0.77 0.64 0.62 0.67 0.60 0.66 0.64 0.62 0.53 0.72 0.51 0.49 0.59 0.51 0.53 0.42 0.52 0.53 0.51 0.53 0.70 0.90 0.95 1.00 1.00 1.03 1.00 1.05 1.03 1.02 1.03 1.00 0.97 0.95 0.95 0.96 0.93
0.79 0.85 0.88 0.87 0.86 0.84 0.83 0.80 0.78 0.68 0.63 0.62 0.69 0.83 0.84 0.77 0.68 0.61 0.58 0.65 0.61 0.55 0.67 0.60 0.62 0.67 0.66 0.71 0.56 0.57 0.49 0.53 0.41 0.62 0.52 0.45 0.60 0.79 0.88 0.94 1.07 1.04 1.12 1.13 1.18 1.14 1.10 1.10 1.07 1.00 0.95 0.94 0.95 0.97
0.85 0.87 0.86 0.85 0.82 0.80 0.79 0.78 0.77 0.75 0.72 0.70 0.71 0.65 0.64 0.64 0.53 0.52 0.46 0.52 0.50 0.61 0.63 0.63 0.55 0.62 0.66 0.69 0.59 0.55 0.46 0.45 0.64 0.51 0.44 0.51 0.68 0.78 0.89 0.98 1.05 1.08 1.09 1.08 1.13 1.14 1.15 1.14 1.08 1.04 0.98 1.01 1.02 0.97
0.88 0.88 0.84 0.80 0.81 0.81 0.78 0.76 0.76 0.72 0.61 0.50 0.54 0.41 0.46 0.47 0.54 0.56 0.57 0.58 0.69 0.71 0.68 0.67 0.62 0.60 0.65 0.59 0.60 0.49 0.56 0.58 0.47 0.43 0.45 0.60 0.70 0.75 0.86 0.95 1.01 1.06 1.09 1.08 1.08 1.08 1.05 1.09 1.05 1.07 1.04 1.06 1.02 0.98
0.88 0.87 0.82 0.82 0.82 0.80 0.77 0.77 0.75 0.71 0.58 0.47 0.57 0.43 0.49 0.61 0.65 0.71 0.71 0.70 0.77 0.78 0.72 0.63 0.62 0.64 0.58 0.56 0.62 0.57 0.49 0.46 0.50 0.49 0.61 0.71 0.75 0.77 0.81 0.86 0.93 0.98 0.93 0.94 1.03 1.03 1.05 1.06 1.00 1.01 1.04 1.03 0.99 1.01
0.87 0.84 0.81 0.83 0.84 0.80 0.79 0.75 0.73 0.74 0.66 0.56 0.57 0.56 0.64 0.62 0.65 0.72 0.71 0.68 0.78 0.76 0.74 0.66 0.55 0.52 0.52 0.55 0.52 0.51 0.48 0.45 0.54 0.65 0.71 0.79 0.79 0.78 0.81 0.87 0.92 0.97 1.00 0.99 0.95 0.90 0.88 0.90 0.89 0.89 0.93 0.96 0.98 0.99
0.86 0.75 0.82 0.83 0.85 0.81 0.78 0.72 0.70 0.63 0.59 0.57 0.56 0.70 0.66 0.67 0.64 0.67 0.73 0.71 0.80 0.69 0.59 0.58 0.45 0.46 0.60 0.52 0.50 0.59 0.51 0.57 0.64 0.68 0.78 0.84 0.86 0.86 0.88 0.88 0.87 0.89 0.90 0.91 0.93 0.90 0.89 0.92 0.94 0.89 0.83 0.87 0.91 0.93
0.76 0.82 0.87 0.86 0.86 0.77 0.72 0.74 0.65 0.62 0.53 0.61 0.56 0.61 0.66 0.70 0.68 0.67 0.70 0.74 0.70 0.66 0.63 0.61 0.64 0.49 0.43 0.39 0.41 0.52 0.59 0.67 0.73 0.75 0.80 0.91 0.92 0.92 0.92 0.86 0.85 0.86 0.86 0.88 0.91 0.91 0.91 0.90 0.89 0.88 0.91 0.93 0.96 0.98
0.81 0.86 0.89 0.90 0.86 0.71 0.59 0.68 0.73 0.53 0.56 0.64 0.66 0.68 0.69 0.69 0.73 0.73 0.74 0.77 0.77 0.77 0.70 0.65 0.56 0.51 0.51 0.60 0.59 0.62 0.66 0.71 0.73 0.80 0.83 0.87 0.86 0.79 0.80 0.83 0.84 0.84 0.85 0.86 0.87 0.87 0.89 0.92 0.91 0.90 0.89 0.86 0.83 0.91
0.84 0.90 0.93 0.90 0.86 0.66 0.56 0.63 0.78 0.61 0.54 0.63 0.70 0.68 0.68 0.68 0.69 0.67 0.67 0.71 0.70 0.68 0.62 0.58 0.55 0.57 0.60 0.68 0.74 0.76 0.78 0.82 0.81 0.77 0.78 0.82 0.84 0.82 0.82 0.82 0.81 0.84 0.85 0.89 0.91 0.92 0.94 0.96 0.94 0.92 0.88 0.80 0.74 0.74
0.86 0.88 0.89 0.87 0.78 0.74 0.64 0.61 0.62 0.66 0.67 0.61 0.67 0.67 0.65 0.68 0.61 0.61 0.63 0.70 0.64 0.60 0.56 0.66 0.69 0.72 0.76 0.79 0.86 0.91 0.90 0.88 0.83 0.82 0.79 0.75 0.82 0.84 0.82 0.84 0.86 0.88 0.87 0.91 0.90 0.94 0.96 0.94 0.93 0.94 0.90 0.84 0.80 0.76
0.87 0.92 0.84 0.84 0.72 0.71 0.65 0.70 0.62 0.69 0.62 0.61 0.61 0.62 0.58 0.54 0.56 0.62 0.70 0.61 0.62 0.66 0.71 0.71 0.73 0.77 0.80 0.80 0.83 0.90 0.92 0.92 0.91 0.89 0.87 0.85 0.76 0.76 0.77 0.83 0.84 0.85 0.91 0.95 0.96 0.94 0.95 0.97 0.96 0.95 0.90 0.84 0.85 0.84
0.92 0.89 0.79 0.75 0.63 0.60 0.55 0.72 0.58 0.63 0.56 0.56 0.60 0.54 0.56 0.57 0.60 0.68 0.56 0.64 0.65 0.76 0.80 0.79 0.82 0.85 0.79 0.83 0.83 0.81 0.83 0.80 0.78 0.79 0.80 0.81 0.84 0.87 0.91 0.91 0.93 0.88 0.88 0.93 1.00 0.97 0.92 0.95 0.91 0.87 0.87 0.85 0.90 0.83
0.92 0.75 0.65 0.62 0.62 0.55 0.65 0.60 0.67 0.62 0.60 0.56 0.53 0.49 0.52 0.53 0.61 0.56 0.51 0.58 0.67 0.76 0.77 0.78 0.77 0.76 0.79 0.77 0.72 0.73 0.78 0.81 0.79 0.82 0.87 0.86 0.84 0.88 0.95 0.95 0.97 0.92 0.91 0.94 0.96 0.94 0.95 0.91 0.89 0.89 0.85 0.76 0.70 0.55
0.59 0.59 0.61 0.53 0.62 0.55 0.52 0.54 0.55 0.52 0.48 0.51 0.47 0.48 0.53 0.56 0.49 0.48 0.48 0.57 0.65 0.69 0.75 0.78 0.80 0.78 0.73 0.73 0.76 0.82 0.93 0.90 0.86 0.83 0.88 0.94 0.89 0.87 0.87 0.91 0.92 0.94 0.97 0.93 0.93 0.93 0.92 0.91 0.86 0.81 0.71 0.62 0.50 0.50
0.53 0.60 0.56 0.56 0.57 0.53 0.55 0.47 0.48 0.47 0.47 0.44 0.47 0.53 0.54 0.48 0.43 0.42 0.53 0.65 0.70 0.76 0.81 0.83 0.77 0.72 0.76 0.83 0.82 0.86 0.88 0.96 0.93 0.84 0.81 0.83 0.81 0.77 0.74 0.73 0.70 0.71 0.79 0.82 0.79 0.80 0.81 0.83 0.79 0.73 0.67 0.55 0.50 0.49
0.51 0.55 0.65 0.72 0.66 0.62 0.53 0.54 0.54 0.49 0.45 0.44 0.49 0.48 0.47 0.42 0.45 0.56 0.69 0.77 0.77 0.85 0.92 0.89 0.83 0.80 0.85 0.88 0.93 0.94 0.97 0.99 0.90 0.83 0.84 0.78 0.72 0.69 0.69 0.60 0.56 0.57 0.65 0.58 0.59 0.62 0.63 0.62 0.63 0.66 0.61 0.52 0.50 0.49
0.66 0.68 0.57 0.62 0.58 0.60 0.52 0.51 0.47 0.45 0.47 0.53 0.53 0.46 0.46 0.49 0.52 0.65 0.71 0.82 0.86 0.91 0.92 0.89 0.88 0.93 0.97 0.98 0.97 0.97 0.97 0.95 0.91 0.86 0.79 0.78 0.79 0.73 0.72 0.69 0.61 0.55 0.46 0.41 0.41 0.44 0.45 0.45 0.48 0.50 0.53 0.46 0.43 0.44
0.62 0.67 0.63 0.54 0.56 0.55 0.54 0.52 0.50 0.55 0.60 0.58 0.50 0.50 0.55 0.66 0.74 0.76 0.79 0.84 0.88 0.88 0.82 0.80 0.92 0.98 0.99 0.99 0.98 0.97 0.96 0.94 0.84 0.73 0.67 0.62 0.61 0.63 0.68 0.62 0.55 0.46 0.44 0.42 0.41 0.41 0.41 0.40 0.40 0.41 0.41 0.43 0.45 0.48
0.56 0.62 0.56 0.55 0.51 0.49 0.56 0.63 0.63 0.70 0.75 0.70 0.68 0.67 0.68 0.71 0.79 0.80 0.79 0.79 0.77 0.77 0.79 0.83 0.93 0.94 0.91 0.91 0.91 0.92 0.97 0.97 0.91 0.82 0.73 0.67 0.67 0.71 0.62 0.55 0.53 0.51 0.46 0.43 0.42 0.43 0.44 0.41 0.44 0.43 0.43 0.45 0.45 0.45
0.65 0.63 0.58 0.58 0.56 0.61 0.67 0.73 0.75 0.76 0.75 0.74 0.78 0.70 0.68 0.71 0.81 0.86 0.85 0.83 0.84 0.82 0.79 0.80 0.87 0.92 0.90 0.90 0.89 0.86 0.85 0.93 0.94 0.92 0.89 0.88 0.80 0.64 0.57 0.52 0.50 0.48 0.47 0.46 0.47 0.44 0.40 0.38 0.38 0.40 0.42 0.42 0.43 0.46
0.61 0.57 0.56 0.54 0.58 0.68 0.75 0.74 0.76 0.75 0.77 0.77 0.76 0.80 0.79 0.73 0.64 0.71 0.80 0.81 0.79 0.79 0.82 0.83 0.84 0.86 0.92 0.94 0.93 0.91 0.89 0.87 0.84 0.84 0.84 0.85 0.76 0.64 0.55 0.55 0.57 0.57 0.50 0.45 0.39 0.37 0.37 0.37 0.38 0.39 0.40 0.42 0.46 0.49
0.59 0.59 0.61 0.62 0.61 0.63 0.71 0.74 0.72 0.74 0.76 0.73 0.78 0.82 0.79 0.75 0.63 0.73 0.84 0.85 0.80 0.80 0.82 0.85 0.89 0.92 0.92 0.90 0.83 0.71 0.63 0.56 0.59 0.65 0.68 0.67 0.64 0.60 0.59 0.55 0.47 0.43 0.42 0.44 0.45 0.46 0.44 0.45 0.44 0.44 0.47 0.50 0.53 0.55
Wind_Speed
24 24 23 23 23 23 22 21 20 20 20 18 16 16 14 13 11 7 3 3 4 7 10 11 11 10 10 11 10 11 11 11 11 11 12 14 13 13 12 13 12 13 13 16 15 15 19 14 12 14 14 12 12 13
23 23 23 22 23 22 20 20 20 20 20 18 16 15 14 11 10 7 4 4 6 7 9 10 12 14 15 15 13 12 12 12 12 10 11 12 13 13 13 16 15 16 16 16 16 16 17 17 17 16 14 12 14 13
22 22 21 22 21 21 20 21 21 20 20 17 15 15 13 11 8 6 5 6 4 4 5 6 7 8 9 13 15 14 15 14 14 14 14 14 15 13 14 14 13 15 17 17 16 18 17 16 15 13 13 12 12 13
21 20 21 21 21 21 20 21 21 21 20 17 15 15 13 10 8 7 5 5 3 3 4 5 5 6 7 9 11 13 14 15 16 16 15 15 15 15 16 16 15 15 13 13 14 16 14 15 14 13 11 11 11 12
20 20 21 21 21 21 22 22 22 22 20 17 16 15 12 10 9 8 6 5 4 3 4 5 5 4 5 6 7 9 11 13 15 16 16 17 17 16 17 17 18 17 17 16 18 18 16 17 16 15 14 14 13 12
21 21 22 22 22 23 22 22 22 21 19 17 16 14 11 9 8 6 5 5 5 5 5 5 6 6 6 7 7 9 10 11 12 14 16 18 19 18 19 20 21 22 21 21 20 19 19 18 18 17 16 15 15 14
21 22 22 23 23 23 22 22 22 21 20 18 16 13 10 8 6 5 5 6 7 7 6 7 7 8 9 8 10 11 11 12 12 13 14 16 17 18 20 21 22 23 23 23 22 19 18 19 19 19 17 16 15 15
22 22 22 22 22 22 22 22 22 21 20 18 14 11 7 5 5 5 6 7 6 6 6 7 8 8 9 9 10 12 12 12 12 13 14 14 17 17 19 20 21 20 20 19 20 21 21 19 18 18 17 16 15 15
22 21 21 21 22 22 22 22 21 21 20 16 12 8 6 6 6 6 9 6 5 6 6 7 7 9 9 10 10 11 10 10 12 12 13 15 16 16 19 21 19 19 19 17 18 17 19 20 19 18 17 17 16 17
21 21 20 21 21 21 21 21 21 21 18 13 8 7 7 7 10 8 6 5 5 6 6 6 8 9 9 9 9 9 9 9 9 11 13 13 16 18 18 18 17 16 16 16 17 18 18 19 19 18 17 17 16 17
21 20 20 20 20 21 21 19 20 20 13 10 9 8 9 10 7 6 6 6 6 6 6 7 7 8 9 8 9 9 9 9 8 11 11 13 14 15 18 19 19 15 14 13 16 16 17 19 18 17 16 16 16 15
20 19 20 20 20 20 19 19 20 16 13 12 10 9 7 6 6 6 6 6 6 7 8 8 9 9 9 8 8 9 8 8 8 10 9 11 13 13 14 14 14 14 14 15 15 15 17 18 16 15 15 15 16 16
19 19 20 20 20 19 18 19 19 17 14 9 7 7 6 6 5 6 6 7 7 8 8 8 9 9 9 8 8 8 7 9 9 8 9 9 10 10 8 8 8 11 12 15 12 11 11 14 13 13 14 15 15 15
19 20 20 21 18 18 20 20 19 15 10 8 7 8 6 7 7 7 7 7 8 8 8 9 8 8 9 8 8 8 8 8 8 8 8 9 10 8 8 6 5 4 6 7 9 9 9 9 12 13 14 14 14 14
21 21 22 18 19 21 21 20 17 12 9 8 7 7 7 8 8 8 9 8 9 8 8 9 9 9 9 8 8 8 7 8 8 7 8 9 8 7 5 5 2 2 2 3 4 6 9 9 9 10 11 13 14 14
23 22 17 20 22 22 21 17 12 10 9 9 9 8 9 8 9 9 9 10 8 8 9 9 8 8 8 7 7 8 8 8 8 8 9 9 8 7 7 5 5 5 6 7 7 8 9 11 12 13 13 14 14 14
22 18 21 22 22 22 17 12 11 10 10 10 10 10 10 11 10 10 9 10 9 9 8 8 8 8 7 8 8 7 8 8 8 9 8 10 9 9 8 8 8 9 9 9 9 9 10 10 11 12 13 14 15 16
20 22 23 22 21 18 14 12 11 11 11 10 9 10 9 9 9 10 9 9 9 10 10 9 8 8 8 8 9 10 11 10 10 10 9 8 7 8 9 10 11 10 10 10 10 11 11 11 11 12 12 11 11 10
24 24 23 20 19 16 13 12 11 11 11 10 11 10 10 10 10 11 11 11 11 10 8 8 7 7 8 9 9 9 9 10 9 9 9 9 9 9 9 10 10 11 11 12 11 11 11 12 11 11 10 9 8 8
23 21 19 19 15 13 12 12 11 11 10 10 11 11 11 11 10 10 10 10 9 9 8 8 9 9 9 10 10 10 8 8 8 8 9 9 10 10 11 11 12 12 12 11 11 10 9 7 7 7 7 7 7 7
19 17 17 15 13 12 12 12 11 11 11 10 11 11 11 10 10 10 9 9 8 8 8 8 9 9 10 10 9 9 9 9 8 8 9 10 10 11 11 12 11 10 9 8 7 6 6 5 6 6 6 5 5 5
17 17 15 13 12 12 12 11 11 11 10 10 10 9 9 9 9 8 7 7 7 7 7 8 8 9 8 8 8 8 9 9 10 10 11 12 13 12 13 12 10 8 6 5 5 5 4 4 3 4 5 6 5 4
16 14 13 12 11 10 11 9 9 9 9 8 8 7 7 8 7 7 6 6 7 7 6 7 8 8 7 7 8 9 10 10 10 10 11 11 12 12 12 10 8 6 6 5 5 5 4 3 2 2 3 3 4 5
13 11 9 9 8 8 8 6 5 5 5 6 6 7 6 6 7 6 6 7 7 6 6 6 5 6 7 9 9 10 9 7 5 4 4 6 7 6 3 3 4 3 3 3 5 5 3 2 1 1 2 3 3 4
8 7 6 7 6 5 5 5 4 4 5 5 5 6 6 6 6 6 6 6 5 4 4 4 5 6 8 8 7 5 2 3 2 1 3 6 7 8 9 8 7 7 5 5 4 4 3 2 2 3 4 4 3 4
6 5 4 4 4 3 3 4 4 4 5 6 5 6 5 5 5 4 4 4 3 3 3 3 4 7 6 4 0 4 6 7 6 4 4 5 6 7 8 8 7 6 4 2 0 2 4 5 6 5 5 5 5 5
6 6 6 5 4 3 3 3 4 4 4 4 4 5 4 3 2 2 2 3 3 3 2 1 4 6 3 3 7 8 8 7 6 5 5 6 6 5 4 4 4 5 5 4 3 3 4 4 4 5 5 5 6 6
5 4 4 3 2 2 2 2 2 2 2 2 3 3 2 2 1 2 2 2 1 2 2 0 4 7 3 6 8 8 9 6 6 6 7 6 6 6 5 4 5 6 7 6 5 5 5 4 3 3 4 5 7 8
3 3 4 3 3 2 1 1 2 2 2 2 2 1 2 1 2 3 3 3 3 3 2 2 2 7 7 8 9 8 6 4 4 4 4 5 5 5 5 5 5 5 7 8 7 5 5 4 4 5 6 7 8 10
3 6 4 3 3 2 2 2 2 2 3 3 3 4 4 5 6 6 4 4 5 6 4 3 1 4 9 8 6 6 4 3 2 1 1 3 5 7 7 6 6 7 8 8 7 6 7 7 7 7 8 9 11 13
5 5 4 4 3 2 1 1 3 4 4 4 4 4 5 5 4 3 3 4 5 6 6 6 6 6 5 5 4 4 2 2 3 4 4 5 6 6 7 7 8 9 9 8 9 10 10 8 8 9 10 11 14 14
5 5 4 3 1 2 2 3 4 4 3 3 3 3 4 5 4 5 4 1 4 7 8 9 8 5 5 4 2 2 3 4 4 4 5 5 5 6 7 8 10 11 10 9 9 9 9 9 9 11 12 14 15 16
3 4 4 3 1 1 2 3 4 5 4 4 4 2 2 4 5 4 3 3 5 6 7 9 7 5 4 3 2 1 2 3 4 5 6 6 7 8 9 10 10 9 9 9 10 10 11 11 12 12 13 15 16 18
Wind_Direction
327 328 329 330 331 333 335 336 336 338 339 340 341 344 345 348 351 350 310 279 254 237 237 228 229 229 233 230 233 243 241 250 249 245 245 247 248 253 259 252 246 237 237 245 251 253 258 249 250 248 259 257 235 232
324 327 328 331 332 333 334 336 335 335 336 335 335 338 340 340 345 350 334 311 283 242 236 239 240 243 239 236 236 245 239 245 245 245 250 252 253 257 253 252 252 250 247 251 245 251 259 254 259 257 250 236 239 239
324 327 329 331 332 333 333 334 334 334 333 331 330 332 333 332 330 331 325 330 309 255 241 229 234 242 240 238 240 242 245 246 246 250 252 255 255 251 252 253 250 254 253 256 256 261 262 257 250 246 243 241 239 235
324 326 329 331 331 331 331 332 332 331 330 327 325 325 324 322 318 309 299 318 329 248 226 234 247 241 256 246 244 245 252 253 252 253 253 252 254 253 254 254 254 253 253 251 259 258 254 249 236 232 233 233 233 243
322 324 327 328 330 329 328 328 329 329 328 324 321 320 317 312 311 301 284 272 300 259 238 237 255 253 266 255 256 263 260 259 257 255 250 252 254 256 258 258 256 252 252 255 257 248 250 237 232 233 233 232 232 241
321 321 322 324 325 326 326 326 327 327 326 321 319 316 311 307 309 300 285 261 273 270 241 247 254 268 277 274 277 277 277 269 262 257 256 256 257 257 258 259 260 259 260 260 261 246 248 236 232 233 232 233 243 251
320 320 321 321 322 324 324 325 326 326 324 319 316 310 302 294 299 301 278 279 268 269 248 260 267 269 285 282 280 282 281 273 269 265 264 263 262 261 260 261 266 263 262 256 252 240 240 234 233 229 232 238 245 254
318 319 321 322 323 324 324 324 325 324 322 318 312 306 293 280 295 297 302 293 268 257 254 257 265 273 295 286 288 290 285 278 277 271 271 272 271 268 266 271 272 267 263 255 243 241 235 228 228 230 231 235 243 253
319 319 320 322 323 324 324 325 325 323 321 317 307 287 279 281 290 294 303 286 273 259 257 263 269 273 292 293 291 294 291 283 281 278 275 279 275 271 277 278 270 267 259 247 240 232 225 223 221 222 229 238 246 253
321 320 320 322 324 326 327 327 328 326 322 315 303 287 279 275 292 290 291 288 282 275 271 269 276 280 290 294 293 295 294 291 291 286 290 285 277 275 277 274 268 267 257 244 231 226 221 220 223 229 234 241 247 250
322 322 321 322 324 325 327 328 330 331 326 320 307 288 283 287 275 279 282 281 280 278 276 279 282 287 293 293 289 293 287 294 295 295 301 297 293 290 281 273 259 256 245 250 232 224 227 225 223 232 239 245 246 246
323 322 322 322 323 324 324 326 329 329 322 310 297 291 285 281 279 276 276 278 283 274 278 281 284 285 291 292 290 293 289 295 290 303 308 311 302 302 285 279 246 243 242 246 234 228 231 235 229 234 238 242 244 249
321 323 323 322 322 322 323 325 325 322 318 305 296 290 290 277 283 269 271 284 286 286 285 289 291 287 290 291 289 290 291 283 295 301 299 304 321 322 313 282 268 251 241 223 230 237 232 222 231 234 241 247 249 252
319 320 321 322 322 322 322 322 321 319 312 303 300 295 277 279 270 270 276 279 281 286 288 291 291 288 291 290 281 284 282 287 292 292 293 304 311 314 331 312 270 258 239 245 240 241 233 225 232 243 252 251 252 252
315 316 318 319 321 321 320 319 316 309 301 296 292 283 273 276 273 279 280 285 284 282 291 298 292 286 289 283 280 283 279 282 278 284 294 304 305 301 315 349 13 227 231 244 255 237 241 248 249 252 253 255 255 254
312 312 311 316 317 318 318 316 312 305 298 290 282 280 279 278 279 283 283 285 281 284 294 298 292 290 284 278 278 272 279 280 277 274 292 298 298 290 281 285 293 291 285 279 273 268 263 260 261 262 262 262 259 256
309 304 309 313 314 315 313 308 306 300 294 289 284 277 276 272 273 282 274 281 281 287 288 293 289 280 285 282 278 270 269 281 283 287 286 291 280 281 285 282 283 285 285 282 278 278 274 270 268 266 268 267 265 262
302 304 307 309 312 310 301 299 299 298 291 285 283 287 283 271 277 284 279 277 282 282 286 282 278 278 276 276 277 277 279 280 276 277 282 285 285 282 284 286 287 284 283 283 278 277 277 279 274 271 271 270 267 261
299 300 302 303 305 302 296 294 292 293 287 282 278 282 280 277 277 284 281 281 282 278 274 280 280 275 277 277 279 282 284 282 280 270 276 278 278 283 292 292 289 289 287 283 279 279 276 277 271 267 262 261 258 248
297 297 297 300 296 294 291 289 292 289 286 282 281 282 281 277 282 286 285 279 280 277 272 271 275 279 278 280 278 284 275 282 284 275 277 284 286 286 289 290 288 288 289 283 275 272 276 265 266 267 250 250 244 244
294 291 297 295 291 286 285 288 287 284 289 284 282 283 278 281 285 290 286 272 278 273 268 269 280 285 284 283 276 274 279 274 278 276 282 285 291 292 291 292 291 284 280 276 266 262 252 252 265 261 245 232 225 235
285 291 289 289 287 285 284 280 279 284 285 285 288 282 274 281 287 284 284 278 271 271 271 277 282 289 289 289 283 274 281 284 284 284 287 287 290 289 287 287 282 273 265 259 255 239 237 249 272 246 228 219 231 248
286 284 284 281 283 285 283 285 281 281 281 281 288 281 279 283 281 284 281 276 277 279 277 282 288 289 280 286 289 286 287 290 291 294 295 298 296 293 284 272 254 248 251 255 237 212 209 232 250 226 205 239 239 273
285 279 274 275 276 281 289 283 278 283 283 285 288 289 287 288 293 278 279 282 277 278 282 286 289 293 296 297 296 292 290 282 285 305 334 349 354 349 326 214 202 217 232 209 194 189 193 200 155 224 245 247 282 295
281 268 263 274 272 272 274 279 280 286 290 293 295 293 294 300 292 286 279 276 275 278 282 289 292 302 306 306 302 294 251 202 175 90 50 51 54 62 73 87 98 99 103 118 140 168 204 260 285 291 277 277 277 290
265 256 250 259 255 251 272 288 296 298 299 300 296 297 302 302 296 280 270 262 262 253 277 294 326 332 329 325 144 130 121 118 115 101 88 76 69 73 77 84 86 76 61 62 186 230 273 288 288 279 274 270 283 296
260 264 252 242 250 270 281 288 299 306 307 307 313 319 312 295 296 275 266 252 251 252 234 310 351 356 357 122 136 131 127 116 98 94 84 74 73 86 92 71 48 26 11 2 358 330 296 296 278 267 274 283 281 289
248 247 223 212 226 223 270 314 328 335 341 342 359 5 8 1 290 294 241 291 234 184 185 286 11 12 125 149 152 142 136 108 98 92 81 66 64 63 55 37 20 9 9 8 347 336 326 319 301 290 282 278 288 297
214 191 184 195 191 176 148 104 40 31 23 28 23 347 328 330 314 308 296 247 217 190 208 213 353 358 160 151 151 159 150 125 96 76 54 41 39 29 11 360 356 359 359 355 349 347 348 335 322 320 308 298 301 307
166 157 155 158 157 151 125 128 51 24 12 9 2 349 324 308 303 297 277 244 224 215 211 200 153 83 137 158 160 167 173 189 203 200 357 355 354 347 346 343 336 333 335 340 338 330 325 313 307 308 310 308 311 310
145 145 144 140 131 130 66 349 327 319 316 325 332 337 334 337 341 334 290 233 227 202 195 185 176 170 156 156 182 200 228 247 240 256 282 304 321 341 350 352 349 342 336 331 328 323 317 311 304 306 308 312 317 317
155 165 157 147 133 92 48 27 20 18 4 354 346 2 9 12 5 357 353 196 184 186 188 183 178 181 188 194 197 224 263 274 266 272 291 300 302 318 328 333 335 335 332 331 334 337 333 322 314 309 310 312 315 318
173 175 172 164 149 52 17 0 5 7 15 18 8 350 340 356 4 11 41 100 144 162 169 179 186 182 184 188 201 248 299 302 292 291 293 297 302 308 314 320 326 332 333 329 327 326 326 326 326 323 318 316 315 316